QPF
0.01 0.01 0.01 0.01 0.01 0.02 0.01 0.01 0.00 0.00 0.00 0.00 0.00 0.00 0.00 0.00 0.00 0.00 0.00 0.00 0.00 0.00 0.00 0.00 0.00 0.00 0.00 0.00 0.00 0.00 0.00 0.00 0.00 0.01 0.01 0.01 0.01 0.01 0.01 0.01 0.01 0.02 0.04 0.07
0.02 0.01 0.01 0.00 0.00 0.01 0.01 0.01 0.01 0.00 0.00 0.00 0.00 0.00 0.00 0.00 0.00 0.00 0.00 0.00 0.00 0.01 0.00 0.00 0.00 0.00 0.00 0.00 0.00 0.00 0.00 0.00 0.00 0.00 0.00 0.00 0.01 0.01 0.01 0.01 0.01 0.01 0.02 0.03
0.02 0.01 0.00 0.00 0.00 0.01 0.01 0.01 0.01 0.01 0.01 0.01 0.00 0.00 0.00 0.00 0.01 0.01 0.01 0.01 0.00 0.00 0.00 0.00 0.00 0.00 0.00 0.00 0.00 0.00 0.00 0.00 0.00 0.00 0.01 0.01 0.01 0.01 0.01 0.02 0.01 0.01 0.01 0.01
0.01 0.01 0.00 0.01 0.01 0.01 0.01 0.01 0.01 0.01 0.02 0.02 0.01 0.01 0.00 0.00 0.01 0.01 0.01 0.01 0.00 0.00 0.00 0.00 0.00 0.00 0.00 0.00 0.00 0.00 0.00 0.00 0.00 0.00 0.01 0.01 0.01 0.01 0.01 0.01 0.01 0.01 0.01 0.01
0.02 0.01 0.01 0.01 0.00 0.00 0.00 0.00 0.00 0.01 0.02 0.02 0.02 0.01 0.00 0.00 0.00 0.00 0.01 0.01 0.00 0.00 0.00 0.00 0.00 0.00 0.00 0.00 0.00 0.00 0.00 0.00 0.00 0.00 0.00 0.01 0.01 0.01 0.01 0.01 0.01 0.01 0.01 0.01
0.02 0.01 0.01 0.01 0.01 0.00 0.00 0.01 0.01 0.02 0.03 0.04 0.02 0.01 0.00 0.00 0.00 0.00 0.00 0.01 0.01 0.00 0.00 0.00 0.00 0.00 0.00 0.00 0.00 0.00 0.00 0.00 0.00 0.00 0.00 0.00 0.00 0.01 0.01 0.01 0.01 0.01 0.01 0.01
0.01 0.01 0.01 0.01 0.01 0.01 0.02 0.02 0.04 0.05 0.06 0.04 0.01 0.01 0.00 0.00 0.00 0.00 0.00 0.01 0.01 0.00 0.00 0.00 0.00 0.00 0.01 0.01 0.01 0.01 0.00 0.00 0.00 0.00 0.00 0.00 0.00 0.00 0.01 0.01 0.01 0.01 0.01 0.02
0.01 0.01 0.00 0.01 0.01 0.01 0.02 0.02 0.03 0.04 0.03 0.01 0.00 0.00 0.00 0.00 0.00 0.00 0.00 0.01 0.01 0.01 0.01 0.01 0.01 0.01 0.01 0.01 0.01 0.01 0.01 0.01 0.01 0.01 0.00 0.00 0.00 0.00 0.00 0.01 0.01 0.01 0.02 0.02
0.01 0.01 0.00 0.00 0.01 0.01 0.01 0.02 0.01 0.03 0.02 0.01 0.00 0.00 0.00 0.00 0.00 0.00 0.01 0.01 0.01 0.02 0.01 0.01 0.01 0.01 0.01 0.01 0.01 0.01 0.01 0.01 0.01 0.01 0.01 0.01 0.01 0.00 0.00 0.00 0.01 0.01 0.02 0.02
0.02 0.02 0.00 0.00 0.01 0.01 0.01 0.01 0.02 0.04 0.05 0.02 0.01 0.00 0.00 0.00 0.00 0.00 0.00 0.01 0.01 0.01 0.01 0.01 0.01 0.01 0.01 0.01 0.01 0.01 0.01 0.01 0.01 0.01 0.01 0.02 0.01 0.01 0.01 0.01 0.01 0.01 0.01 0.02
0.02 0.02 0.01 0.01 0.01 0.02 0.02 0.02 0.03 0.03 0.03 0.03 0.01 0.00 0.00 0.00 0.00 0.00 0.00 0.00 0.01 0.01 0.01 0.01 0.01 0.01 0.01 0.01 0.01 0.01 0.01 0.01 0.01 0.01 0.01 0.02 0.02 0.02 0.02 0.02 0.01 0.01 0.01 0.01
0.01 0.02 0.02 0.01 0.01 0.01 0.02 0.03 0.03 0.03 0.02 0.02 0.01 0.00 0.00 0.00 0.00 0.00 0.00 0.01 0.01 0.00 0.01 0.01 0.01 0.01 0.01 0.01 0.01 0.01 0.01 0.01 0.01 0.01 0.02 0.02 0.02 0.02 0.02 0.02 0.02 0.02 0.02 0.02
0.03 0.04 0.03 0.02 0.03 0.02 0.02 0.02 0.03 0.03 0.02 0.02 0.01 0.01 0.00 0.00 0.00 0.00 0.01 0.01 0.01 0.01 0.01 0.01 0.00 0.00 0.01 0.01 0.01 0.01 0.01 0.01 0.01 0.01 0.02 0.02 0.02 0.02 0.03 0.03 0.03 0.03 0.02 0.02
0.04 0.05 0.03 0.02 0.02 0.02 0.02 0.02 0.02 0.04 0.03 0.02 0.01 0.01 0.00 0.00 0.00 0.00 0.01 0.01 0.01 0.01 0.01 0.00 0.00 0.00 0.00 0.01 0.01 0.01 0.01 0.01 0.02 0.02 0.03 0.03 0.03 0.03 0.03 0.03 0.03 0.03 0.02 0.02
0.04 0.04 0.03 0.02 0.02 0.03 0.03 0.02 0.02 0.03 0.02 0.02 0.01 0.01 0.00 0.00 0.00 0.00 0.00 0.00 0.00 0.01 0.00 0.00 0.00 0.00 0.00 0.01 0.01 0.01 0.01 0.02 0.02 0.02 0.02 0.02 0.03 0.03 0.03 0.04 0.04 0.03 0.02 0.01
0.04 0.04 0.02 0.02 0.03 0.04 0.03 0.02 0.03 0.03 0.03 0.02 0.01 0.01 0.00 0.00 0.00 0.00 0.00 0.00 0.00 0.00 0.00 0.01 0.01 0.00 0.00 0.01 0.01 0.01 0.01 0.02 0.02 0.02 0.02 0.03 0.03 0.03 0.03 0.03 0.04 0.03 0.02 0.02
0.03 0.03 0.03 0.02 0.02 0.04 0.03 0.02 0.03 0.03 0.03 0.02 0.02 0.01 0.00 0.00 0.00 0.00 0.00 0.00 0.00 0.00 0.00 0.01 0.01 0.01 0.01 0.01 0.01 0.01 0.01 0.01 0.02 0.02 0.02 0.02 0.03 0.03 0.03 0.03 0.03 0.02 0.02 0.02
0.03 0.04 0.05 0.03 0.03 0.04 0.03 0.02 0.02 0.02 0.02 0.02 0.02 0.02 0.01 0.01 0.00 0.00 0.00 0.00 0.00 0.01 0.01 0.01 0.01 0.01 0.01 0.01 0.01 0.01 0.02 0.02 0.02 0.02 0.01 0.02 0.02 0.03 0.03 0.02 0.02 0.02 0.02 0.01
0.03 0.04 0.06 0.05 0.03 0.02 0.01 0.02 0.02 0.02 0.02 0.03 0.03 0.02 0.02 0.01 0.00 0.01 0.01 0.01 0.01 0.01 0.01 0.01 0.01 0.01 0.01 0.01 0.01 0.01 0.01 0.02 0.02 0.02 0.01 0.01 0.02 0.02 0.02 0.02 0.02 0.01 0.01 0.01
0.02 0.04 0.07 0.05 0.03 0.02 0.02 0.01 0.02 0.02 0.02 0.02 0.03 0.02 0.02 0.02 0.02 0.01 0.01 0.01 0.01 0.01 0.01 0.01 0.01 0.01 0.01 0.01 0.01 0.01 0.01 0.02 0.02 0.02 0.01 0.02 0.02 0.02 0.02 0.02 0.01 0.01 0.01 0.01
0.02 0.04 0.05 0.04 0.03 0.02 0.02 0.01 0.01 0.02 0.02 0.02 0.02 0.03 0.03 0.03 0.02 0.01 0.01 0.01 0.01 0.01 0.01 0.01 0.01 0.01 0.01 0.01 0.02 0.01 0.01 0.01 0.02 0.03 0.02 0.01 0.02 0.01 0.01 0.01 0.01 0.01 0.01 0.01
0.01 0.02 0.02 0.02 0.02 0.02 0.01 0.01 0.01 0.02 0.01 0.02 0.02 0.02 0.02 0.03 0.02 0.01 0.01 0.01 0.01 0.01 0.01 0.01 0.01 0.01 0.01 0.01 0.01 0.01 0.01 0.01 0.02 0.03 0.02 0.01 0.01 0.01 0.02 0.01 0.01 0.02 0.02 0.02
0.01 0.01 0.02 0.01 0.01 0.01 0.01 0.02 0.01 0.01 0.01 0.01 0.01 0.01 0.02 0.02 0.02 0.02 0.01 0.01 0.02 0.01 0.01 0.01 0.01 0.01 0.01 0.01 0.01 0.02 0.02 0.02 0.04 0.03 0.02 0.01 0.01 0.02 0.01 0.01 0.02 0.02 0.02 0.02
0.01 0.01 0.02 0.01 0.01 0.01 0.01 0.01 0.01 0.01 0.01 0.01 0.01 0.01 0.02 0.03 0.03 0.03 0.02 0.02 0.02 0.02 0.01 0.01 0.01 0.01 0.01 0.01 0.01 0.02 0.03 0.03 0.05 0.03 0.02 0.02 0.02 0.02 0.02 0.02 0.02 0.02 0.02 0.02
0.01 0.01 0.01 0.01 0.00 0.00 0.01 0.01 0.01 0.01 0.01 0.02 0.01 0.01 0.02 0.02 0.03 0.02 0.02 0.02 0.02 0.02 0.01 0.01 0.02 0.02 0.02 0.02 0.02 0.03 0.03 0.04 0.06 0.04 0.03 0.03 0.03 0.03 0.03 0.03 0.02 0.02 0.02 0.02
0.01 0.01 0.01 0.01 0.01 0.02 0.01 0.02 0.02 0.02 0.02 0.02 0.02 0.02 0.02 0.02 0.02 0.02 0.02 0.02 0.02 0.02 0.01 0.01 0.02 0.02 0.03 0.02 0.02 0.03 0.04 0.05 0.06 0.05 0.04 0.03 0.03 0.03 0.03 0.03 0.04 0.03 0.03 0.02
MSLP
1024.72 1025.41 1026.01 1026.50 1026.88 1027.12 1027.23 1027.17 1026.95 1026.57 1026.03 1025.36 1024.59 1023.76 1022.91 1022.06 1021.26 1020.50 1019.78 1019.09 1018.41 1017.70 1016.96 1016.16 1015.32 1014.46 1013.59 1012.74 1011.92 1011.15 1010.44 1009.78 1009.19 1008.66 1008.20 1007.82 1007.55 1007.40 1007.40 1007.56 1007.88 1008.34 1008.94 1009.65
1024.87 1025.44 1025.94 1026.37 1026.73 1027.02 1027.20 1027.26 1027.17 1026.91 1026.46 1025.83 1025.05 1024.17 1023.23 1022.29 1021.39 1020.55 1019.78 1019.08 1018.39 1017.70 1016.98 1016.21 1015.38 1014.50 1013.60 1012.71 1011.85 1011.04 1010.29 1009.61 1008.99 1008.43 1007.93 1007.50 1007.16 1006.93 1006.85 1006.92 1007.17 1007.58 1008.15 1008.86
1024.87 1025.29 1025.68 1026.07 1026.45 1026.82 1027.14 1027.37 1027.45 1027.32 1026.97 1026.37 1025.56 1024.58 1023.51 1022.43 1021.40 1020.46 1019.63 1018.90 1018.24 1017.60 1016.93 1016.21 1015.42 1014.56 1013.66 1012.75 1011.86 1011.01 1010.24 1009.53 1008.88 1008.30 1007.76 1007.28 1006.87 1006.56 1006.39 1006.37 1006.52 1006.87 1007.39 1008.06
1024.83 1025.10 1025.41 1025.77 1026.21 1026.71 1027.21 1027.64 1027.89 1027.90 1027.62 1027.01 1026.12 1025.01 1023.76 1022.49 1021.30 1020.23 1019.33 1018.58 1017.95 1017.37 1016.79 1016.15 1015.43 1014.62 1013.75 1012.84 1011.93 1011.07 1010.28 1009.55 1008.88 1008.27 1007.71 1007.18 1006.72 1006.33 1006.06 1005.93 1005.99 1006.24 1006.68 1007.30
1024.87 1025.02 1025.26 1025.64 1026.17 1026.82 1027.51 1028.13 1028.55 1028.67 1028.42 1027.76 1026.75 1025.45 1023.99 1022.50 1021.11 1019.91 1018.92 1018.15 1017.56 1017.06 1016.57 1016.04 1015.40 1014.66 1013.83 1012.94 1012.04 1011.17 1010.36 1009.62 1008.95 1008.33 1007.74 1007.19 1006.67 1006.21 1005.84 1005.62 1005.57 1005.71 1006.06 1006.60
1025.05 1025.11 1025.33 1025.75 1026.39 1027.20 1028.06 1028.85 1029.40 1029.58 1029.32 1028.57 1027.39 1025.88 1024.19 1022.47 1020.88 1019.53 1018.46 1017.67 1017.10 1016.67 1016.28 1015.85 1015.31 1014.64 1013.85 1012.99 1012.10 1011.23 1010.42 1009.68 1009.01 1008.39 1007.79 1007.22 1006.66 1006.14 1005.70 1005.38 1005.22 1005.25 1005.50 1005.95
1025.37 1025.39 1025.61 1026.10 1026.85 1027.79 1028.79 1029.69 1030.32 1030.51 1030.19 1029.32 1027.96 1026.25 1024.33 1022.40 1020.64 1019.15 1018.00 1017.19 1016.64 1016.27 1015.95 1015.59 1015.12 1014.50 1013.75 1012.91 1012.03 1011.16 1010.36 1009.62 1008.96 1008.35 1007.76 1007.18 1006.60 1006.04 1005.53 1005.12 1004.87 1004.80 1004.95 1005.31
1025.76 1025.79 1026.05 1026.61 1027.44 1028.47 1029.55 1030.50 1031.13 1031.28 1030.87 1029.87 1028.36 1026.46 1024.37 1022.29 1020.39 1018.81 1017.60 1016.76 1016.22 1015.86 1015.58 1015.25 1014.81 1014.21 1013.47 1012.63 1011.75 1010.89 1010.08 1009.36 1008.71 1008.11 1007.54 1006.96 1006.37 1005.79 1005.24 1004.77 1004.44 1004.28 1004.34 1004.61
1026.14 1026.21 1026.53 1027.13 1028.01 1029.06 1030.15 1031.07 1031.64 1031.70 1031.19 1030.07 1028.44 1026.44 1024.25 1022.09 1020.14 1018.51 1017.28 1016.41 1015.86 1015.49 1015.19 1014.84 1014.37 1013.75 1012.99 1012.13 1011.23 1010.35 1009.55 1008.83 1008.19 1007.61 1007.06 1006.49 1005.91 1005.32 1004.74 1004.23 1003.84 1003.62 1003.61 1003.82
1026.42 1026.55 1026.92 1027.55 1028.41 1029.42 1030.42 1031.24 1031.69 1031.64 1031.01 1029.82 1028.14 1026.12 1023.93 1021.79 1019.87 1018.26 1017.04 1016.16 1015.57 1015.16 1014.79 1014.37 1013.83 1013.14 1012.31 1011.40 1010.47 1009.57 1008.76 1008.04 1007.42 1006.85 1006.31 1005.76 1005.19 1004.60 1004.01 1003.48 1003.05 1002.79 1002.73 1002.89
1026.54 1026.75 1027.15 1027.76 1028.56 1029.44 1030.28 1030.92 1031.20 1031.01 1030.29 1029.07 1027.41 1025.47 1023.39 1021.38 1019.57 1018.05 1016.88 1016.01 1015.37 1014.88 1014.41 1013.87 1013.21 1012.42 1011.51 1010.53 1009.55 1008.63 1007.80 1007.08 1006.45 1005.89 1005.36 1004.81 1004.24 1003.65 1003.06 1002.51 1002.07 1001.78 1001.70 1001.83
1026.53 1026.81 1027.22 1027.77 1028.43 1029.13 1029.74 1030.15 1030.22 1029.89 1029.10 1027.89 1026.32 1024.54 1022.67 1020.86 1019.24 1017.87 1016.77 1015.92 1015.24 1014.65 1014.05 1013.37 1012.58 1011.67 1010.66 1009.62 1008.60 1007.65 1006.80 1006.07 1005.43 1004.85 1004.30 1003.74 1003.16 1002.56 1001.95 1001.40 1000.96 1000.66 1000.56 1000.69
1026.45 1026.79 1027.19 1027.64 1028.12 1028.57 1028.92 1029.06 1028.91 1028.42 1027.57 1026.41 1024.99 1023.42 1021.81 1020.27 1018.89 1017.70 1016.71 1015.88 1015.16 1014.47 1013.74 1012.92 1012.00 1010.97 1009.89 1008.79 1007.73 1006.76 1005.89 1005.13 1004.46 1003.85 1003.26 1002.66 1002.04 1001.40 1000.79 1000.23 999.78 999.48 999.39 999.51
1026.37 1026.77 1027.13 1027.46 1027.73 1027.92 1027.96 1027.82 1027.44 1026.80 1025.92 1024.82 1023.57 1022.25 1020.92 1019.67 1018.53 1017.53 1016.65 1015.86 1015.10 1014.32 1013.47 1012.52 1011.49 1010.38 1009.24 1008.11 1007.03 1006.04 1005.15 1004.36 1003.63 1002.96 1002.29 1001.62 1000.94 1000.26 999.62 999.04 998.59 998.31 998.22 998.36
1026.37 1026.80 1027.12 1027.31 1027.37 1027.28 1027.04 1026.61 1026.01 1025.24 1024.32 1023.30 1022.22 1021.13 1020.08 1019.10 1018.20 1017.37 1016.59 1015.82 1015.02 1014.17 1013.22 1012.19 1011.08 1009.92 1008.75 1007.60 1006.52 1005.52 1004.59 1003.74 1002.94 1002.17 1001.40 1000.63 999.87 999.13 998.45 997.87 997.42 997.16 997.10 997.25
1026.45 1026.90 1027.16 1027.23 1027.09 1026.75 1026.24 1025.57 1024.77 1023.88 1022.94 1021.99 1021.06 1020.18 1019.36 1018.60 1017.89 1017.20 1016.49 1015.74 1014.91 1013.99 1012.97 1011.88 1010.72 1009.54 1008.37 1007.23 1006.14 1005.12 1004.14 1003.21 1002.31 1001.41 1000.51 999.62 998.76 997.96 997.24 996.66 996.24 996.02 996.00 996.20
1026.56 1027.02 1027.23 1027.17 1026.86 1026.32 1025.59 1024.72 1023.77 1022.79 1021.84 1020.95 1020.15 1019.43 1018.79 1018.20 1017.63 1017.02 1016.35 1015.59 1014.73 1013.76 1012.69 1011.55 1010.38 1009.19 1008.02 1006.89 1005.79 1004.72 1003.67 1002.63 1001.58 1000.53 999.49 998.47 997.51 996.65 995.92 995.36 995.00 994.84 994.90 995.16
1026.57 1027.03 1027.19 1027.04 1026.60 1025.91 1025.03 1024.02 1022.97 1021.95 1021.01 1020.19 1019.48 1018.89 1018.38 1017.90 1017.40 1016.83 1016.17 1015.38 1014.47 1013.45 1012.34 1011.18 1009.99 1008.80 1007.63 1006.47 1005.33 1004.18 1003.02 1001.83 1000.62 999.40 998.20 997.05 996.00 995.11 994.39 993.89 993.62 993.57 993.74 994.11
1026.35 1026.78 1026.90 1026.68 1026.16 1025.39 1024.43 1023.36 1022.29 1021.28 1020.38 1019.63 1019.02 1018.52 1018.09 1017.67 1017.20 1016.64 1015.95 1015.12 1014.15 1013.08 1011.93 1010.74 1009.52 1008.31 1007.11 1005.89 1004.66 1003.39 1002.08 1000.71 999.30 997.90 996.54 995.28 994.18 993.28 992.62 992.23 992.09 992.20 992.52 993.03
1025.79 1026.17 1026.24 1025.98 1025.42 1024.62 1023.65 1022.61 1021.58 1020.64 1019.83 1019.18 1018.66 1018.24 1017.88 1017.49 1017.02 1016.44 1015.71 1014.82 1013.80 1012.68 1011.48 1010.24 1008.99 1007.72 1006.44 1005.13 1003.76 1002.33 1000.81 999.24 997.64 996.05 994.55 993.20 992.07 991.20 990.65 990.40 990.44 990.75 991.26 991.95
1024.81 1025.13 1025.14 1024.86 1024.30 1023.53 1022.63 1021.68 1020.77 1019.95 1019.28 1018.75 1018.34 1018.01 1017.70 1017.33 1016.86 1016.25 1015.47 1014.53 1013.46 1012.28 1011.03 1009.73 1008.41 1007.06 1005.67 1004.21 1002.67 1001.04 999.31 997.52 995.71 993.96 992.34 990.93 989.81 989.02 988.60 988.53 988.79 989.32 990.05 990.93
1023.44 1023.67 1023.64 1023.34 1022.82 1022.13 1021.35 1020.55 1019.81 1019.17 1018.67 1018.29 1018.01 1017.78 1017.52 1017.18 1016.71 1016.07 1015.26 1014.28 1013.16 1011.93 1010.63 1009.27 1007.86 1006.40 1004.87 1003.24 1001.51 999.66 997.71 995.71 993.72 991.82 990.12 988.69 987.61 986.93 986.68 986.81 987.29 988.04 989.00 990.09
1021.76 1021.90 1021.82 1021.53 1021.07 1020.50 1019.88 1019.27 1018.74 1018.31 1018.01 1017.80 1017.66 1017.53 1017.34 1017.03 1016.57 1015.92 1015.09 1014.08 1012.93 1011.66 1010.30 1008.88 1007.38 1005.81 1004.13 1002.34 1000.41 998.36 996.21 994.03 991.90 989.90 988.15 986.74 985.73 985.18 985.09 985.43 986.12 987.09 988.25 989.52
1019.92 1019.97 1019.86 1019.59 1019.22 1018.79 1018.35 1017.95 1017.65 1017.45 1017.34 1017.31 1017.30 1017.27 1017.14 1016.87 1016.42 1015.78 1014.94 1013.92 1012.75 1011.46 1010.07 1008.60 1007.02 1005.35 1003.54 1001.60 999.52 997.31 995.01 992.70 990.47 988.43 986.68 985.31 984.40 983.98 984.05 984.56 985.44 986.59 987.91 989.32
1018.07 1018.05 1017.92 1017.70 1017.43 1017.16 1016.91 1016.74 1016.65 1016.66 1016.74 1016.86 1016.97 1017.01 1016.94 1016.70 1016.26 1015.63 1014.79 1013.78 1012.61 1011.32 1009.91 1008.40 1006.78 1005.04 1003.15 1001.11 998.91 996.60 994.22 991.85 989.60 987.57 985.86 984.58 983.77 983.48 983.69 984.33 985.34 986.61 988.05 989.55
1016.34 1016.28 1016.16 1016.02 1015.87 1015.76 1015.70 1015.73 1015.84 1016.03 1016.26 1016.50 1016.69 1016.78 1016.74 1016.50 1016.07 1015.44 1014.61 1013.61 1012.46 1011.18 1009.79 1008.27 1006.64 1004.86 1002.94 1000.86 998.63 996.30 993.91 991.56 989.36 987.40 985.78 984.60 983.91 983.73 984.04 984.78 985.86 987.19 988.68 990.21
Thickness
5567 5561 5559 5562 5563 5566 5562 5559 5559 5564 5567 5564 5563 5568 5576 5577 5574 5574 5574 5574 5574 5575 5575 5574 5572 5571 5570 5570 5570 5570 5569 5568 5568 5567 5566 5565 5565 5565 5566 5566 5567 5567 5568 5568
5550 5551 5558 5557 5556 5554 5551 5549 5549 5553 5555 5553 5551 5558 5567 5569 5569 5569 5569 5569 5568 5568 5566 5565 5564 5562 5562 5561 5561 5561 5560 5560 5559 5559 5558 5557 5556 5556 5556 5557 5557 5558 5559 5559
5545 5549 5551 5549 5546 5544 5542 5540 5541 5541 5542 5541 5539 5550 5559 5565 5562 5563 5564 5563 5563 5563 5560 5558 5556 5555 5553 5553 5553 5554 5552 5552 5551 5550 5549 5547 5546 5546 5547 5548 5549 5549 5550 5550
5534 5539 5540 5539 5535 5535 5533 5536 5533 5530 5523 5520 5527 5527 5550 5554 5552 5556 5557 5555 5555 5555 5554 5552 5550 5547 5546 5546 5545 5545 5544 5543 5542 5541 5540 5539 5538 5538 5538 5539 5540 5540 5541 5542
5526 5529 5529 5529 5529 5527 5524 5526 5521 5518 5511 5505 5509 5507 5535 5540 5543 5551 5552 5550 5549 5548 5547 5545 5543 5541 5540 5538 5536 5536 5535 5534 5533 5532 5531 5530 5529 5529 5529 5529 5530 5531 5532 5533
5517 5520 5520 5520 5519 5518 5513 5510 5504 5494 5491 5495 5503 5500 5522 5527 5540 5545 5546 5544 5542 5540 5538 5536 5534 5532 5531 5529 5528 5527 5526 5526 5524 5523 5522 5521 5521 5520 5520 5520 5521 5522 5523 5524
5503 5508 5509 5509 5506 5504 5502 5493 5482 5480 5473 5488 5494 5495 5517 5534 5536 5536 5537 5535 5533 5531 5528 5527 5525 5524 5523 5521 5520 5519 5518 5517 5516 5514 5514 5513 5513 5512 5512 5512 5512 5513 5515 5516
5484 5488 5496 5496 5497 5493 5491 5490 5478 5476 5472 5479 5482 5489 5516 5528 5527 5525 5525 5524 5522 5521 5519 5519 5518 5516 5515 5514 5513 5511 5510 5509 5508 5507 5507 5506 5505 5504 5504 5504 5504 5505 5507 5508
5470 5477 5484 5485 5486 5487 5482 5475 5478 5463 5453 5456 5473 5484 5503 5518 5518 5517 5515 5514 5513 5512 5511 5511 5510 5509 5507 5506 5505 5504 5503 5501 5500 5500 5499 5499 5498 5497 5496 5496 5496 5497 5498 5499
5464 5460 5468 5471 5475 5475 5475 5468 5456 5454 5455 5459 5473 5477 5494 5511 5510 5510 5507 5506 5505 5503 5502 5502 5502 5501 5499 5498 5497 5495 5495 5494 5493 5492 5492 5492 5491 5491 5490 5489 5488 5489 5490 5491
5453 5447 5450 5455 5458 5461 5459 5457 5454 5445 5444 5451 5453 5481 5499 5501 5501 5500 5499 5497 5495 5493 5493 5493 5493 5492 5490 5489 5488 5486 5486 5485 5484 5484 5483 5484 5483 5483 5483 5483 5482 5482 5482 5482
5439 5430 5431 5440 5448 5450 5451 5451 5443 5441 5436 5433 5440 5471 5495 5488 5488 5487 5488 5487 5485 5485 5485 5484 5484 5482 5481 5480 5479 5478 5477 5477 5476 5475 5475 5476 5475 5475 5475 5475 5475 5474 5474 5474
5430 5422 5423 5436 5436 5433 5435 5437 5435 5430 5425 5421 5429 5464 5484 5477 5478 5479 5478 5477 5475 5476 5475 5474 5474 5474 5473 5472 5471 5470 5469 5468 5467 5467 5467 5467 5467 5468 5468 5467 5467 5467 5466 5466
5427 5414 5418 5427 5431 5422 5420 5426 5426 5422 5419 5420 5431 5455 5472 5472 5470 5469 5467 5466 5464 5465 5465 5465 5464 5464 5464 5463 5463 5462 5461 5460 5459 5458 5459 5459 5459 5459 5459 5460 5459 5459 5458 5457
5415 5408 5405 5410 5415 5414 5416 5422 5423 5420 5422 5423 5439 5443 5460 5461 5457 5457 5457 5456 5455 5455 5455 5456 5456 5455 5455 5454 5454 5453 5452 5452 5451 5450 5450 5450 5451 5451 5451 5451 5451 5450 5449 5448
5400 5398 5394 5399 5409 5407 5410 5418 5420 5419 5421 5423 5430 5438 5450 5448 5446 5446 5445 5446 5447 5447 5448 5448 5447 5447 5446 5446 5446 5445 5444 5444 5443 5442 5442 5441 5442 5442 5442 5442 5442 5441 5440 5439
5387 5385 5386 5392 5395 5399 5403 5417 5418 5416 5415 5417 5421 5435 5438 5437 5440 5439 5439 5439 5439 5440 5440 5439 5438 5438 5438 5438 5438 5437 5437 5436 5435 5435 5434 5434 5434 5434 5434 5434 5433 5433 5432 5431
5381 5378 5376 5377 5381 5389 5419 5416 5415 5414 5415 5412 5417 5422 5425 5428 5430 5430 5431 5431 5431 5431 5431 5431 5431 5430 5431 5430 5430 5430 5428 5428 5427 5427 5427 5426 5426 5426 5425 5425 5425 5424 5423 5421
5377 5377 5371 5369 5372 5385 5406 5409 5403 5401 5408 5411 5410 5415 5416 5415 5418 5424 5426 5424 5424 5424 5424 5423 5423 5422 5422 5422 5422 5421 5420 5420 5419 5419 5419 5418 5418 5418 5417 5416 5416 5415 5414 5412
5365 5367 5367 5363 5366 5376 5404 5404 5398 5398 5399 5407 5404 5405 5405 5404 5408 5420 5420 5417 5416 5415 5415 5414 5414 5413 5414 5414 5414 5413 5412 5412 5412 5412 5411 5411 5410 5410 5409 5408 5407 5406 5405 5404
5358 5355 5357 5358 5360 5373 5393 5390 5392 5389 5398 5402 5398 5397 5396 5395 5402 5406 5407 5407 5407 5406 5406 5406 5405 5405 5405 5405 5406 5405 5405 5405 5405 5404 5403 5403 5402 5401 5401 5399 5398 5397 5397 5395
5357 5350 5348 5347 5354 5374 5387 5380 5382 5389 5392 5392 5391 5390 5390 5391 5392 5393 5396 5397 5397 5397 5397 5397 5397 5396 5396 5396 5397 5397 5397 5397 5397 5396 5396 5395 5394 5393 5393 5391 5390 5389 5387 5386
5351 5357 5355 5358 5372 5378 5374 5376 5379 5379 5381 5384 5383 5384 5384 5384 5385 5386 5387 5387 5388 5388 5387 5387 5387 5386 5386 5387 5389 5389 5389 5389 5389 5389 5388 5387 5386 5385 5384 5383 5382 5380 5378 5377
5346 5346 5347 5349 5363 5368 5368 5368 5371 5373 5374 5377 5378 5379 5378 5378 5378 5378 5378 5378 5377 5378 5377 5377 5377 5377 5377 5378 5379 5380 5380 5380 5380 5380 5380 5380 5378 5377 5376 5375 5374 5372 5371 5369
5348 5338 5338 5344 5356 5360 5366 5365 5368 5370 5370 5371 5372 5372 5372 5371 5370 5370 5369 5369 5369 5369 5369 5369 5369 5369 5369 5370 5371 5371 5371 5371 5372 5372 5371 5371 5370 5369 5367 5367 5365 5365 5364 5363
5340 5337 5338 5351 5355 5352 5359 5363 5362 5363 5364 5365 5366 5366 5366 5364 5363 5362 5362 5361 5361 5361 5361 5361 5361 5361 5361 5362 5362 5363 5363 5363 5364 5364 5363 5362 5362 5360 5359 5358 5357 5357 5356 5356